CYIK

Ivujivik Airport

ICAO Code CYIK
IATA Code YIK
Name Ivujivik Airport
Location Ivujivik, Quebec, CA
Elevation 127 Feet / 38.7 Meters
Latitude 62.41722222
Longitude -77.92527778
METAR CYIK 252100Z 24013KT 10SM BKN004 OVC006 01/01 A3007 RMK ST6ST2 LAST STFD OBS/NEXT 261200UTC SLP188
Extra information Display Charts and CFS
Display NOTAMS
Runway Length Width Surface Elevation
07 3521 ft 100 ft GVL 105 ft
25 3521 ft 100 ft GVL 124 ft